This is the latest recevied weather packets stored in our database for station/object SQ3MKP-13. If no packets are shown the sender has not sent any weather packets the latest 10 day(s).
| Time | Temp. | Humidity | Pressure | Rain* | Wind** | Luminosity | Snow |
|---|---|---|---|---|---|---|---|
| 1777528441 | 4.44° C | 69% | 1021.4 hPa | - | - | 158 W/m² | - |
| 1777528140 | 4.44° C | 70% | 1021.4 hPa | - | - | 147 W/m² | - |
| 1777527839 | 3.89° C | 71% | 1021.4 hPa | - | - | 128 W/m² | - |
| 1777527538 | 3.33° C | 70% | 1021.5 hPa | - | - | 148 W/m² | - |
| 1777527237 | 2.78° C | 73% | 1021.5 hPa | - | - | 138 W/m² | - |
| 1777526937 | 2.78° C | 76% | 1021.4 hPa | - | - | 116 W/m² | - |
| 1777526635 | 2.78° C | 77% | 1021.4 hPa | - | - | 117 W/m² | - |
| 1777526335 | 2.22° C | 78% | 1021.5 hPa | - | - | 77 W/m² | - |
| 1777526034 | 2.22° C | 79% | 1021.4 hPa | - | - | 78 W/m² | - |
| 1777525733 | 1.67° C | 80% | 1021.5 hPa | - | - | 83 W/m² | - |
| 1777525432 | 1.11° C | 82% | 1021.5 hPa | - | - | 88 W/m² | - |
| 1777525131 | 1.11° C | 82% | 1021.5 hPa | - | - | 88 W/m² | - |
| 1777524830 | 0.56° C | 84% | 1021.5 hPa | - | - | 52 W/m² | - |
| 1777524529 | 0.56° C | 84% | 1021.4 hPa | - | - | 52 W/m² | - |
| 1777524228 | 0.56° C | 84% | 1021.4 hPa | - | - | 45 W/m² | - |
| 1777523927 | 0.56° C | 85% | 1021.4 hPa | - | - | 35 W/m² | - |
| 1777523626 | 0° C | 86% | 1021.5 hPa | - | - | 30 W/m² | - |
| 1777523326 | 0° C | 86% | 1021.5 hPa | - | - | 30 W/m² | - |
| 1777523025 | -0.56° C | 87% | 1021.4 hPa | - | - | 29 W/m² | - |
| 1777522724 | -0.56° C | 87% | 1021.5 hPa | - | - | 28 W/m² | - |
| 1777522423 | -0.56° C | 87% | 1021.5 hPa | - | - | 24 W/m² | - |
| 1777522122 | -0.56° C | 88% | 1021.4 hPa | - | - | 18 W/m² | - |
| 1777521821 | -0.56° C | 88% | 1021.4 hPa | - | - | 15 W/m² | - |
| 1777521520 | -0.56° C | 88% | 1021.5 hPa | - | - | 12 W/m² | - |
| 1777521219 | -0.56° C | 89% | 1021.6 hPa | - | - | 10 W/m² | - |
* Rain since midnight (hover to see other rain measurements)
** Current wind speed in m/s (hover to see current wind gust speed)